Página principal
METAR-TAF:

METAR-TAF

Aeroportos :

Collin County Regional Airport at McKinney

McKinney, Texas, Estados Unidos

latitude: 33-10-40N, longitude: 096-35-25W, altura: 178 m

Observação actual do tempo

O boletim foi feito há 1 hora e 2 minutos, às 14:53 UTC
Vento 17 kt de norte
Temperatura 4°C
Humidade 81%
Pressão 1014 hPa
Visibilidade: 16.1 km
Nuvens fragmentadasa uma altura de 1500 ft

METAR: KTKI 171453Z 35017KT 10SM BKN015 04/01 A2994 RMK AO2 SLP149 T00390011 51030

Hora: 09:55 (15:55 UTC)


TAF: em falta

Observações e previsões do tempo de mais de 4000 aeroportos (mensagens METAR e TAF).

As estações disponíveis são os pontos amarelos e vermelhos sobre o mapa.

Mova o rato sobre o mapa para ver o nome da estação.

Depois clique no ponto para visualizar as observações e previsões meteorológicas.

Para alterar o mapa : clique nos botões verdes com uma cruz preta para aumentar o zoom; no botão verde com uma pitada de zoom; ou nas setas verdes para mapas adjacentes.


METAR-TAF: